Year,Month,Day,Hour,Minute,Value (Times are PST for temperature in C)
2015,10,16,00,00,8.30
2015,10,16,00,01,8.30
2015,10,16,00,02,8.30
2015,10,16,00,03,8.30
2015,10,16,00,04,8.30
2015,10,16,00,05,8.30
2015,10,16,00,06,8.30
2015,10,16,00,07,8.30
2015,10,16,00,08,8.20
2015,10,16,00,09,8.20
2015,10,16,00,10,8.20
2015,10,16,00,11,8.20
2015,10,16,00,12,8.20
2015,10,16,00,13,8.20
2015,10,16,00,14,8.20
2015,10,16,00,15,8.10
2015,10,16,00,16,8.10
2015,10,16,00,17,8.10
2015,10,16,00,18,8.10
2015,10,16,00,19,8.10
2015,10,16,00,20,8.10
2015,10,16,00,21,8.10
2015,10,16,00,22,8.10
2015,10,16,00,23,8.10
2015,10,16,00,24,8.10
2015,10,16,00,25,8.00
2015,10,16,00,26,8.00
2015,10,16,00,27,8.00
2015,10,16,00,28,8.00
2015,10,16,00,29,8.00
2015,10,16,00,30,8.00
2015,10,16,00,31,8.00
2015,10,16,00,32,8.00
2015,10,16,00,33,8.00
2015,10,16,00,34,8.00
2015,10,16,00,35,8.00
2015,10,16,00,36,8.00
2015,10,16,00,37,8.00
2015,10,16,00,38,8.00
2015,10,16,00,39,8.00
2015,10,16,00,40,8.00
2015,10,16,00,41,7.90
2015,10,16,00,42,7.90
2015,10,16,00,43,7.90
2015,10,16,00,44,7.90
2015,10,16,00,45,7.90
2015,10,16,00,46,7.90
2015,10,16,00,47,7.90
2015,10,16,00,48,7.90
2015,10,16,00,49,7.90
2015,10,16,00,50,7.90
2015,10,16,00,51,7.90
2015,10,16,00,52,7.90
2015,10,16,00,53,7.90
2015,10,16,00,54,7.90
2015,10,16,00,55,7.90
2015,10,16,00,56,7.90
2015,10,16,00,57,7.90
2015,10,16,00,58,7.90
2015,10,16,00,59,7.90
2015,10,16,01,00,7.80
2015,10,16,01,01,7.80
2015,10,16,01,02,7.80
2015,10,16,01,03,7.80
2015,10,16,01,04,7.80
2015,10,16,01,05,7.80
2015,10,16,01,06,7.80
2015,10,16,01,07,7.80
2015,10,16,01,08,7.80
2015,10,16,01,09,7.80
2015,10,16,01,10,7.80
2015,10,16,01,11,7.80
2015,10,16,01,12,7.80
2015,10,16,01,13,7.80
2015,10,16,01,14,7.80
2015,10,16,01,15,7.80
2015,10,16,01,16,7.70
2015,10,16,01,17,7.70
2015,10,16,01,18,7.70
2015,10,16,01,19,7.70
2015,10,16,01,20,7.70
2015,10,16,01,21,7.70
2015,10,16,01,22,7.70
2015,10,16,01,23,7.70
2015,10,16,01,24,7.70
2015,10,16,01,25,7.70
2015,10,16,01,26,7.70
2015,10,16,01,27,7.70
2015,10,16,01,28,7.60
2015,10,16,01,29,7.60
2015,10,16,01,30,7.60
2015,10,16,01,31,7.60
2015,10,16,01,32,7.60
2015,10,16,01,33,7.60
2015,10,16,01,34,7.60
2015,10,16,01,35,7.70
2015,10,16,01,36,7.70
2015,10,16,01,37,7.60
2015,10,16,01,38,7.60
2015,10,16,01,39,7.60
2015,10,16,01,40,7.60
2015,10,16,01,41,7.60
2015,10,16,01,42,7.60
2015,10,16,01,43,7.60
2015,10,16,01,44,7.60
2015,10,16,01,45,7.60
2015,10,16,01,46,7.60
2015,10,16,01,47,7.60
2015,10,16,01,48,7.60
2015,10,16,01,49,7.60
2015,10,16,01,50,7.60
2015,10,16,01,51,7.60
2015,10,16,01,52,7.60
2015,10,16,01,53,7.60
2015,10,16,01,54,7.50
2015,10,16,01,55,7.50
2015,10,16,01,56,7.50
2015,10,16,01,57,7.50
2015,10,16,01,58,7.50
2015,10,16,01,59,7.50
2015,10,16,02,00,7.50
2015,10,16,02,01,7.50
2015,10,16,02,02,7.50
2015,10,16,02,03,7.50
2015,10,16,02,04,7.50
2015,10,16,02,05,7.50
2015,10,16,02,06,7.50
2015,10,16,02,07,7.50
2015,10,16,02,08,7.40
2015,10,16,02,09,7.40
2015,10,16,02,10,7.40
2015,10,16,02,11,7.40
2015,10,16,02,12,7.40
2015,10,16,02,13,7.40
2015,10,16,02,14,7.40
2015,10,16,02,15,7.40
2015,10,16,02,16,7.40
2015,10,16,02,17,7.40
2015,10,16,02,18,7.40
2015,10,16,02,19,7.40
2015,10,16,02,20,7.40
2015,10,16,02,21,7.40
2015,10,16,02,22,7.40
2015,10,16,02,23,7.40
2015,10,16,02,24,7.40
2015,10,16,02,25,7.40
2015,10,16,02,26,7.40
2015,10,16,02,27,7.40
2015,10,16,02,28,7.40
2015,10,16,02,29,7.40
2015,10,16,02,30,7.40
2015,10,16,02,31,7.40
2015,10,16,02,32,7.40
2015,10,16,02,33,7.40
2015,10,16,02,34,7.40
2015,10,16,02,35,7.40
2015,10,16,02,36,7.40
2015,10,16,02,37,7.40
2015,10,16,02,38,7.40
2015,10,16,02,39,7.40
2015,10,16,02,40,7.40
2015,10,16,02,41,7.40
2015,10,16,02,42,7.40
2015,10,16,02,43,7.40
2015,10,16,02,44,7.40
2015,10,16,02,45,7.40
2015,10,16,02,46,7.40
2015,10,16,02,47,7.40
2015,10,16,02,48,7.40
2015,10,16,02,49,7.30
2015,10,16,02,50,7.40
2015,10,16,02,51,7.40
2015,10,16,02,52,7.40
2015,10,16,02,53,7.40
2015,10,16,02,54,7.40
2015,10,16,02,55,7.40
2015,10,16,02,56,7.40
2015,10,16,02,57,7.30
2015,10,16,02,58,7.30
2015,10,16,02,59,7.30
2015,10,16,03,00,7.30
2015,10,16,03,01,7.30
2015,10,16,03,02,7.30
2015,10,16,03,06,7.20
2015,10,16,03,07,7.20
2015,10,16,03,08,7.20
2015,10,16,03,09,7.20
2015,10,16,03,10,7.20
2015,10,16,03,11,7.20
2015,10,16,03,12,7.20
2015,10,16,03,13,7.20
2015,10,16,03,14,7.20
2015,10,16,03,15,7.20
2015,10,16,03,16,7.20
2015,10,16,03,17,7.20
2015,10,16,03,18,7.20
2015,10,16,03,19,7.20
2015,10,16,03,20,7.20
2015,10,16,03,21,7.20
2015,10,16,03,22,7.20
2015,10,16,03,23,7.20
2015,10,16,03,24,7.20
2015,10,16,03,25,7.20
2015,10,16,03,26,7.20
2015,10,16,03,27,7.20
2015,10,16,03,28,7.20
2015,10,16,03,29,7.20
2015,10,16,03,30,7.20
2015,10,16,03,31,7.20
2015,10,16,03,32,7.20
2015,10,16,03,33,7.20
2015,10,16,03,34,7.20
2015,10,16,03,35,7.20
2015,10,16,03,36,7.30
2015,10,16,03,37,7.30
2015,10,16,03,38,7.30
2015,10,16,03,39,7.30
2015,10,16,03,40,7.30
2015,10,16,03,41,7.30
2015,10,16,03,42,7.30
2015,10,16,03,43,7.30
2015,10,16,03,44,7.30
2015,10,16,03,45,7.30
2015,10,16,03,46,7.30
2015,10,16,03,47,7.30
2015,10,16,03,48,7.30
2015,10,16,03,49,7.20
2015,10,16,03,50,7.20
2015,10,16,03,51,7.20
2015,10,16,03,52,7.20
2015,10,16,03,53,7.20
2015,10,16,03,54,7.20
2015,10,16,03,55,7.10
2015,10,16,03,56,7.10
2015,10,16,03,57,7.10
2015,10,16,03,58,7.10
2015,10,16,03,59,7.10
2015,10,16,04,00,7.10
2015,10,16,04,01,7.10
2015,10,16,04,02,7.10
2015,10,16,04,03,7.10
2015,10,16,04,04,7.20
2015,10,16,04,05,7.20
2015,10,16,04,06,7.20
2015,10,16,04,07,7.20
2015,10,16,04,08,7.20
2015,10,16,04,09,7.20
2015,10,16,04,10,7.20
2015,10,16,04,11,7.20
2015,10,16,04,12,7.20
2015,10,16,04,13,7.20
2015,10,16,04,14,7.20
2015,10,16,04,15,7.30
2015,10,16,04,16,7.20
2015,10,16,04,17,7.20
2015,10,16,04,18,7.20
2015,10,16,04,19,7.20
2015,10,16,04,20,7.30
2015,10,16,04,21,7.20
2015,10,16,04,22,7.20
2015,10,16,04,23,7.20
2015,10,16,04,24,7.20
2015,10,16,04,25,7.20
2015,10,16,04,26,7.20
2015,10,16,04,27,7.20
2015,10,16,04,28,7.20
2015,10,16,04,29,7.20
2015,10,16,04,30,7.20
2015,10,16,04,31,7.20
2015,10,16,04,32,7.20
2015,10,16,04,33,7.20
2015,10,16,04,34,7.20
2015,10,16,04,35,7.20
2015,10,16,04,36,7.20
2015,10,16,04,37,7.20
2015,10,16,04,38,7.20
2015,10,16,04,39,7.20
2015,10,16,04,40,7.20
2015,10,16,04,41,7.20
2015,10,16,04,42,7.20
2015,10,16,04,43,7.20
2015,10,16,04,44,7.20
2015,10,16,04,45,7.20
2015,10,16,04,46,7.20
2015,10,16,04,47,7.20
2015,10,16,04,48,7.20
2015,10,16,04,49,7.20
2015,10,16,04,50,7.20
2015,10,16,04,51,7.20
2015,10,16,04,52,7.20
2015,10,16,04,53,7.20
2015,10,16,04,54,7.20
2015,10,16,04,55,7.20
2015,10,16,04,56,7.10
2015,10,16,04,57,7.10
2015,10,16,04,58,7.10
2015,10,16,04,59,7.10
2015,10,16,05,00,7.10
2015,10,16,05,01,7.10
2015,10,16,05,02,7.10
2015,10,16,05,03,7.10
2015,10,16,05,04,7.10
2015,10,16,05,05,7.00
2015,10,16,05,06,7.00
2015,10,16,05,07,7.00
2015,10,16,05,08,7.00
2015,10,16,05,09,7.00
2015,10,16,05,10,7.00
2015,10,16,05,11,7.00
2015,10,16,05,12,7.00
2015,10,16,05,13,7.10
2015,10,16,05,14,7.10
2015,10,16,05,15,7.10
2015,10,16,05,16,7.10
2015,10,16,05,17,7.10
2015,10,16,05,18,7.10
2015,10,16,05,19,7.10
2015,10,16,05,20,7.10
2015,10,16,05,21,7.10
2015,10,16,05,22,7.10
2015,10,16,05,23,7.10
2015,10,16,05,24,7.10
2015,10,16,05,25,7.10
2015,10,16,05,26,7.10
2015,10,16,05,27,7.10
2015,10,16,05,28,7.10
2015,10,16,05,29,7.10
2015,10,16,05,30,7.10
2015,10,16,05,31,7.10
2015,10,16,05,32,7.10
2015,10,16,05,33,7.10
2015,10,16,05,34,7.10
2015,10,16,05,35,7.10
2015,10,16,05,36,7.10
2015,10,16,05,37,7.10
2015,10,16,05,38,7.10
2015,10,16,05,39,7.10
2015,10,16,05,40,7.00
2015,10,16,05,41,7.10
2015,10,16,05,42,7.10
2015,10,16,05,43,7.10
2015,10,16,05,44,7.10
2015,10,16,05,45,7.10
2015,10,16,05,46,7.10
2015,10,16,05,47,7.10
2015,10,16,05,48,7.10
2015,10,16,05,49,7.10
2015,10,16,05,50,7.10
2015,10,16,05,51,7.10
2015,10,16,05,52,7.10
2015,10,16,05,53,7.10
2015,10,16,05,54,7.10
2015,10,16,05,55,7.10
2015,10,16,05,56,7.10
2015,10,16,05,57,7.10
2015,10,16,05,58,7.10
2015,10,16,05,59,7.10
2015,10,16,06,00,7.10
2015,10,16,06,01,7.00
2015,10,16,06,02,7.00
2015,10,16,06,03,7.00
2015,10,16,06,04,7.00
2015,10,16,06,05,7.10
2015,10,16,06,06,7.10
2015,10,16,06,07,7.10
2015,10,16,06,08,7.10
2015,10,16,06,09,7.10
2015,10,16,06,10,7.10
2015,10,16,06,11,7.20
2015,10,16,06,12,7.20
2015,10,16,06,13,7.20
2015,10,16,06,14,7.20
2015,10,16,06,15,7.20
2015,10,16,06,16,7.20
2015,10,16,06,17,7.20
2015,10,16,06,18,7.20
2015,10,16,06,19,7.20
2015,10,16,06,20,7.20
2015,10,16,06,21,7.20
2015,10,16,06,22,7.20
2015,10,16,06,23,7.20
2015,10,16,06,24,7.20
2015,10,16,06,25,7.20
2015,10,16,06,26,7.20
2015,10,16,06,27,7.20
2015,10,16,06,28,7.20
2015,10,16,06,29,7.20
2015,10,16,06,30,7.20
2015,10,16,06,31,7.20
2015,10,16,06,32,7.20
2015,10,16,06,33,7.20
2015,10,16,06,34,7.20
2015,10,16,06,35,7.20
2015,10,16,06,36,7.10
2015,10,16,06,37,7.10
2015,10,16,06,38,7.10
2015,10,16,06,39,7.10
2015,10,16,06,40,7.10
2015,10,16,06,41,7.10
2015,10,16,06,42,7.10
2015,10,16,06,43,7.10
2015,10,16,06,44,7.10
2015,10,16,06,45,7.10
2015,10,16,06,46,7.00
2015,10,16,06,47,7.00
2015,10,16,06,48,7.00
2015,10,16,06,49,7.00
2015,10,16,06,50,7.00
2015,10,16,06,51,7.00
2015,10,16,06,52,7.00
2015,10,16,06,53,7.10
2015,10,16,06,54,7.10
2015,10,16,06,55,7.10
2015,10,16,06,56,7.10
2015,10,16,06,57,7.10
2015,10,16,06,58,7.10
2015,10,16,06,59,7.10
2015,10,16,07,00,7.10
2015,10,16,07,01,7.10
2015,10,16,07,02,7.10
2015,10,16,07,03,7.10
2015,10,16,07,04,7.10
2015,10,16,07,05,7.10
2015,10,16,07,06,7.10
2015,10,16,07,07,7.10
2015,10,16,07,08,7.10
2015,10,16,07,09,7.10
2015,10,16,07,10,7.10
2015,10,16,07,11,7.10
2015,10,16,07,12,7.00
2015,10,16,07,13,7.10
2015,10,16,07,14,7.10
2015,10,16,07,15,7.10
2015,10,16,07,16,7.00
2015,10,16,07,17,7.00
2015,10,16,07,18,7.00
2015,10,16,07,19,7.00
2015,10,16,07,20,7.00
2015,10,16,07,21,7.00
2015,10,16,07,22,7.00
2015,10,16,07,23,6.90
2015,10,16,07,24,6.90
2015,10,16,07,25,6.90
2015,10,16,07,26,6.90
2015,10,16,07,27,6.90
2015,10,16,07,28,6.90
2015,10,16,07,29,6.90
2015,10,16,07,30,6.90
2015,10,16,07,31,6.90
2015,10,16,07,32,6.90
2015,10,16,07,33,6.90
2015,10,16,07,34,6.90
2015,10,16,07,35,6.90
2015,10,16,07,36,6.90
2015,10,16,07,37,6.90
2015,10,16,07,38,6.90
2015,10,16,07,39,6.90
2015,10,16,07,40,6.90
2015,10,16,07,41,6.90
2015,10,16,07,42,6.90
2015,10,16,07,43,6.90
2015,10,16,07,44,6.90
2015,10,16,07,45,6.90
2015,10,16,07,46,6.90
2015,10,16,07,47,6.90
2015,10,16,07,48,6.90
2015,10,16,07,49,6.90
2015,10,16,07,50,6.90
2015,10,16,07,51,6.90
2015,10,16,07,52,6.90
2015,10,16,07,53,6.90
2015,10,16,07,54,6.90
2015,10,16,07,55,6.90
2015,10,16,07,56,7.00
2015,10,16,07,57,7.00
2015,10,16,07,58,7.00
2015,10,16,07,59,7.00
2015,10,16,08,00,7.00
2015,10,16,08,01,7.00
2015,10,16,08,02,7.00
2015,10,16,08,03,7.00
2015,10,16,08,04,7.10
2015,10,16,08,05,7.10
2015,10,16,08,06,7.10
2015,10,16,08,07,7.10
2015,10,16,08,08,7.10
2015,10,16,08,09,7.10
2015,10,16,08,10,7.20
2015,10,16,08,11,7.20
2015,10,16,08,12,7.20
2015,10,16,08,13,7.20
2015,10,16,08,14,7.30
2015,10,16,08,15,7.30
2015,10,16,08,16,7.30
2015,10,16,08,17,7.30
2015,10,16,08,18,7.40
2015,10,16,08,19,7.40
2015,10,16,08,20,7.40
2015,10,16,08,21,7.40
2015,10,16,08,22,7.50
2015,10,16,08,23,7.50
2015,10,16,08,24,7.50
2015,10,16,08,25,7.60
2015,10,16,08,26,7.60
2015,10,16,08,27,7.60
2015,10,16,08,28,7.60
2015,10,16,08,29,7.70
2015,10,16,08,30,7.70
2015,10,16,08,31,7.70
2015,10,16,08,32,7.70
2015,10,16,08,33,7.80
2015,10,16,08,34,7.80
2015,10,16,08,35,7.80
2015,10,16,08,36,7.90
2015,10,16,08,37,7.90
2015,10,16,08,38,8.00
2015,10,16,08,39,8.10
2015,10,16,08,40,8.10
2015,10,16,08,41,8.20
2015,10,16,08,42,8.20
2015,10,16,08,43,8.30
2015,10,16,08,44,8.40
2015,10,16,08,45,8.40
2015,10,16,08,46,8.50
2015,10,16,08,47,8.60
2015,10,16,08,48,8.60
2015,10,16,08,49,8.70
2015,10,16,08,50,8.80
2015,10,16,08,51,8.80
2015,10,16,08,52,8.80
2015,10,16,08,53,8.90
2015,10,16,08,54,8.90
2015,10,16,08,55,9.00
2015,10,16,08,56,9.00
2015,10,16,08,57,9.10
2015,10,16,08,58,9.20
2015,10,16,08,59,9.20
2015,10,16,09,00,9.20
2015,10,16,09,01,9.30
2015,10,16,09,02,9.30
2015,10,16,09,03,9.40
2015,10,16,09,04,9.40
2015,10,16,09,05,9.50
2015,10,16,09,06,9.60
2015,10,16,09,07,9.60
2015,10,16,09,08,9.70
2015,10,16,09,09,9.70
2015,10,16,09,10,9.80
2015,10,16,09,11,9.80
2015,10,16,09,12,9.90
2015,10,16,09,13,10.00
2015,10,16,09,14,10.10
2015,10,16,09,15,10.10
2015,10,16,09,16,10.20
2015,10,16,09,17,10.20
2015,10,16,09,18,10.30
2015,10,16,09,19,10.40
2015,10,16,09,20,10.40
2015,10,16,09,21,10.50
2015,10,16,09,22,10.60
2015,10,16,09,23,10.70
2015,10,16,09,24,10.80
2015,10,16,09,25,10.90
2015,10,16,09,26,11.00
2015,10,16,09,27,11.10
2015,10,16,09,28,11.20
2015,10,16,09,29,11.30
2015,10,16,09,30,11.50
2015,10,16,09,31,11.60
2015,10,16,09,32,11.70
2015,10,16,09,33,11.80
2015,10,16,09,34,11.90
2015,10,16,09,35,12.10
2015,10,16,09,36,12.20
2015,10,16,09,37,12.40
2015,10,16,09,38,12.50
2015,10,16,09,39,12.60
2015,10,16,09,40,12.70
2015,10,16,09,41,12.80
2015,10,16,09,42,12.90
2015,10,16,09,43,13.00
2015,10,16,09,44,13.10
2015,10,16,09,45,13.30
2015,10,16,09,46,13.40
2015,10,16,09,47,13.50
2015,10,16,09,48,13.60
2015,10,16,09,49,13.80
2015,10,16,09,50,13.90
2015,10,16,09,51,14.00
2015,10,16,09,52,14.20
2015,10,16,09,53,14.30
2015,10,16,09,54,14.50
2015,10,16,09,55,14.60
2015,10,16,09,56,14.80
2015,10,16,09,57,14.90
2015,10,16,09,58,15.00
2015,10,16,09,59,15.20
2015,10,16,10,00,15.30
2015,10,16,10,01,15.50
2015,10,16,10,02,15.60
2015,10,16,10,03,15.80
2015,10,16,10,04,15.90
2015,10,16,10,05,16.00
2015,10,16,10,06,16.20
2015,10,16,10,07,16.30
2015,10,16,10,08,16.40
2015,10,16,10,09,16.50
2015,10,16,10,10,16.60
2015,10,16,10,11,16.70
2015,10,16,10,12,16.80
2015,10,16,10,13,16.90
2015,10,16,10,14,17.10
2015,10,16,10,15,17.20
2015,10,16,10,16,17.30
2015,10,16,10,17,17.40
2015,10,16,10,18,17.50
2015,10,16,10,19,17.50
2015,10,16,10,20,17.60
2015,10,16,10,21,17.70
2015,10,16,10,22,17.70
2015,10,16,10,23,17.80
2015,10,16,10,24,17.80
2015,10,16,10,25,17.90
2015,10,16,10,26,18.00
2015,10,16,10,27,18.10
2015,10,16,10,28,18.10
2015,10,16,10,29,18.20
2015,10,16,10,30,18.30
2015,10,16,10,31,18.40
2015,10,16,10,32,18.50
2015,10,16,10,33,18.60
2015,10,16,10,34,18.60
2015,10,16,10,35,18.70
2015,10,16,10,36,18.70
2015,10,16,10,37,18.80
2015,10,16,10,38,18.80
2015,10,16,10,39,18.80
2015,10,16,10,40,18.80
2015,10,16,10,41,18.90
2015,10,16,10,42,18.90
2015,10,16,10,43,19.00
2015,10,16,10,44,19.10
2015,10,16,10,45,19.10
2015,10,16,10,46,19.10
2015,10,16,10,47,19.20
2015,10,16,10,48,19.20
2015,10,16,10,49,19.20
2015,10,16,10,50,19.20
2015,10,16,10,51,19.30
2015,10,16,10,52,19.30
2015,10,16,10,53,19.30
2015,10,16,10,54,19.40
2015,10,16,10,55,19.40
2015,10,16,10,56,19.40
2015,10,16,10,57,19.50
2015,10,16,10,58,19.50
2015,10,16,10,59,19.60
2015,10,16,11,00,19.60
2015,10,16,11,01,19.70
2015,10,16,11,02,19.70
2015,10,16,11,03,19.80
2015,10,16,11,04,19.80
2015,10,16,11,05,19.90
2015,10,16,11,06,19.90
2015,10,16,11,07,19.90
2015,10,16,11,08,19.90
2015,10,16,11,09,19.90
2015,10,16,11,10,20.00
2015,10,16,11,11,20.00
2015,10,16,11,12,20.00
2015,10,16,11,13,20.00
2015,10,16,11,14,20.00
2015,10,16,11,15,20.00
2015,10,16,11,16,20.00
2015,10,16,11,17,20.00
2015,10,16,11,18,20.00
2015,10,16,11,19,20.00
2015,10,16,11,20,20.10
2015,10,16,11,21,20.10
2015,10,16,11,22,20.10
2015,10,16,11,23,20.10
2015,10,16,11,24,20.10
2015,10,16,11,25,20.10
2015,10,16,11,26,20.10
2015,10,16,11,27,20.10
2015,10,16,11,28,20.20
2015,10,16,11,29,20.20
2015,10,16,11,30,20.10
2015,10,16,11,31,20.10
2015,10,16,11,32,20.00
2015,10,16,11,33,20.00
2015,10,16,11,34,19.90
2015,10,16,11,35,19.80
2015,10,16,11,36,19.80
2015,10,16,11,37,19.80
2015,10,16,11,38,19.80
2015,10,16,11,39,19.80
2015,10,16,11,40,19.80
2015,10,16,11,41,19.90
2015,10,16,11,42,19.90
2015,10,16,11,43,20.00
2015,10,16,11,44,20.00
2015,10,16,11,45,20.10
2015,10,16,11,46,20.20
2015,10,16,11,47,20.30
2015,10,16,11,48,20.50
2015,10,16,11,49,20.60
2015,10,16,11,50,20.70
2015,10,16,11,51,20.80
2015,10,16,11,52,20.80
2015,10,16,11,53,20.90
2015,10,16,11,54,20.90
2015,10,16,11,55,20.90
2015,10,16,11,56,20.90
2015,10,16,11,57,20.80
2015,10,16,11,58,20.80
2015,10,16,11,59,20.80
2015,10,16,12,00,20.70
2015,10,16,12,01,20.70
2015,10,16,12,02,20.70
2015,10,16,12,03,20.70
2015,10,16,12,04,20.60
2015,10,16,12,05,20.50
2015,10,16,12,06,20.40
2015,10,16,12,07,20.40
2015,10,16,12,08,20.40
2015,10,16,12,09,20.40
2015,10,16,12,10,20.40
2015,10,16,12,11,20.50
2015,10,16,12,12,20.60
2015,10,16,12,13,20.60
2015,10,16,12,14,20.70
2015,10,16,12,15,20.70
2015,10,16,12,16,20.80
2015,10,16,12,17,20.80
2015,10,16,12,18,20.80
2015,10,16,12,19,20.90
2015,10,16,12,20,20.90
2015,10,16,12,21,20.90
2015,10,16,12,22,20.80
2015,10,16,12,23,20.80
2015,10,16,12,24,20.80
2015,10,16,12,25,20.90
2015,10,16,12,26,20.90
2015,10,16,12,27,20.90
2015,10,16,12,28,20.90
2015,10,16,12,29,21.00
2015,10,16,12,30,21.00
2015,10,16,12,31,21.10
2015,10,16,12,32,21.20
2015,10,16,12,33,21.20
2015,10,16,12,34,21.20
2015,10,16,12,35,21.30
2015,10,16,12,36,21.40
2015,10,16,12,37,21.40
2015,10,16,12,38,21.40
2015,10,16,12,39,21.50
2015,10,16,12,40,21.50
2015,10,16,12,41,21.50
2015,10,16,12,42,21.50
2015,10,16,12,43,21.50
2015,10,16,12,44,21.50
2015,10,16,12,45,21.40
2015,10,16,12,46,21.30
2015,10,16,12,47,21.30
2015,10,16,12,48,21.30
2015,10,16,12,49,21.20
2015,10,16,12,50,21.20
2015,10,16,12,51,21.20
2015,10,16,12,52,21.20
2015,10,16,12,53,21.20
2015,10,16,12,54,21.10
2015,10,16,12,55,21.00
2015,10,16,12,56,21.00
2015,10,16,12,57,20.90
2015,10,16,12,58,20.90
2015,10,16,12,59,20.80
2015,10,16,13,00,20.80
2015,10,16,13,01,20.80
2015,10,16,13,02,20.80
2015,10,16,13,03,20.80
2015,10,16,13,04,20.80
2015,10,16,13,05,20.90
2015,10,16,13,06,21.00
2015,10,16,13,07,21.00
2015,10,16,13,08,21.10
2015,10,16,13,09,21.10
2015,10,16,13,10,21.20
2015,10,16,13,11,21.30
2015,10,16,13,12,21.30
2015,10,16,13,13,21.30
2015,10,16,13,14,21.30
2015,10,16,13,15,21.30
2015,10,16,13,16,21.40
2015,10,16,13,17,21.50
2015,10,16,13,18,21.50
2015,10,16,13,19,21.50
2015,10,16,13,20,21.60
2015,10,16,13,21,21.60
2015,10,16,13,22,21.60
2015,10,16,13,23,21.70
2015,10,16,13,24,21.80
2015,10,16,13,25,21.80
2015,10,16,13,26,21.80
2015,10,16,13,27,21.80
2015,10,16,13,28,21.80
2015,10,16,13,29,21.80
2015,10,16,13,30,21.80
2015,10,16,13,31,21.80
2015,10,16,13,32,21.80
2015,10,16,13,33,21.80
2015,10,16,13,34,21.80
2015,10,16,13,35,21.80
2015,10,16,13,36,21.80
2015,10,16,13,37,21.70
2015,10,16,13,38,21.70
2015,10,16,13,39,21.60
2015,10,16,13,40,21.60
2015,10,16,13,41,21.50
2015,10,16,13,42,21.40
2015,10,16,13,43,21.30
2015,10,16,13,44,21.20
2015,10,16,13,45,21.20
2015,10,16,13,46,21.20
2015,10,16,13,47,21.30
2015,10,16,13,48,21.30
2015,10,16,13,49,21.40
2015,10,16,13,50,21.40
2015,10,16,13,51,21.40
2015,10,16,13,52,21.40
2015,10,16,13,53,21.50
2015,10,16,13,54,21.50
2015,10,16,13,55,21.50
2015,10,16,13,56,21.50
2015,10,16,13,57,21.60
2015,10,16,13,58,21.70
2015,10,16,13,59,21.70
2015,10,16,14,00,21.80
2015,10,16,14,01,21.80
2015,10,16,14,02,21.80
2015,10,16,14,03,21.70
2015,10,16,14,04,21.60
2015,10,16,14,05,21.60
2015,10,16,14,06,21.60
2015,10,16,14,07,21.60
2015,10,16,14,08,21.70
2015,10,16,14,09,21.80
2015,10,16,14,10,21.80
2015,10,16,14,11,21.80
2015,10,16,14,12,21.80
2015,10,16,14,13,21.70
2015,10,16,14,14,21.60
2015,10,16,14,15,21.60
2015,10,16,14,16,21.60
2015,10,16,14,17,21.60
2015,10,16,14,18,21.70
2015,10,16,14,19,21.70
2015,10,16,14,20,21.80
2015,10,16,14,21,21.80
2015,10,16,14,22,21.80
2015,10,16,14,23,21.80
2015,10,16,14,24,21.80
2015,10,16,14,25,21.80
2015,10,16,14,26,21.80
2015,10,16,14,27,21.90
2015,10,16,14,28,21.90
2015,10,16,14,29,22.00
2015,10,16,14,30,22.10
2015,10,16,14,31,22.20
2015,10,16,14,32,22.30
2015,10,16,14,33,22.40
2015,10,16,14,34,22.30
2015,10,16,14,35,22.30
2015,10,16,14,36,22.30
2015,10,16,14,37,22.30
2015,10,16,14,38,22.40
2015,10,16,14,39,22.50
2015,10,16,14,40,22.50
2015,10,16,14,41,22.70
2015,10,16,14,42,22.70
2015,10,16,14,43,22.70
2015,10,16,14,44,22.70
2015,10,16,14,45,22.70
2015,10,16,14,46,22.70
2015,10,16,14,47,22.70
2015,10,16,14,48,22.70
2015,10,16,14,49,22.80
2015,10,16,14,50,22.80
2015,10,16,14,51,22.90
2015,10,16,14,52,22.90
2015,10,16,14,53,22.90
2015,10,16,14,54,22.80
2015,10,16,14,55,22.80
2015,10,16,14,56,22.90
2015,10,16,14,57,22.90
2015,10,16,14,58,23.00
2015,10,16,14,59,23.10
2015,10,16,15,00,23.10
2015,10,16,15,01,23.20
2015,10,16,15,02,23.20
2015,10,16,15,03,23.30
2015,10,16,15,04,23.30
2015,10,16,15,05,23.30
2015,10,16,15,06,23.40
2015,10,16,15,07,23.40
2015,10,16,15,08,23.40
2015,10,16,15,09,23.40
2015,10,16,15,10,23.40
2015,10,16,15,11,23.30
2015,10,16,15,12,23.30
2015,10,16,15,13,23.20
2015,10,16,15,14,23.20
2015,10,16,15,15,23.20
2015,10,16,15,16,23.20
2015,10,16,15,17,23.10
2015,10,16,15,18,23.00
2015,10,16,15,19,22.90
2015,10,16,15,20,22.80
2015,10,16,15,21,22.80
2015,10,16,15,22,22.70
2015,10,16,15,23,22.70
2015,10,16,15,24,22.60
2015,10,16,15,25,22.50
2015,10,16,15,26,22.50
2015,10,16,15,27,22.40
2015,10,16,15,28,22.30
2015,10,16,15,29,22.40
2015,10,16,15,30,22.40
2015,10,16,15,31,22.50
2015,10,16,15,32,22.50
2015,10,16,15,33,22.50
2015,10,16,15,34,22.40
2015,10,16,15,35,22.40
2015,10,16,15,36,22.30
2015,10,16,15,37,22.30
2015,10,16,15,38,22.30
2015,10,16,15,39,22.30
2015,10,16,15,40,22.40
2015,10,16,15,41,22.40
2015,10,16,15,42,22.50
2015,10,16,15,43,22.60
2015,10,16,15,44,22.60
2015,10,16,15,45,22.60
2015,10,16,15,46,22.60
2015,10,16,15,47,22.60
2015,10,16,15,48,22.60
2015,10,16,15,49,22.60
2015,10,16,15,50,22.70
2015,10,16,15,51,22.70
2015,10,16,15,52,22.70
2015,10,16,15,53,22.60
2015,10,16,15,54,22.50
2015,10,16,15,55,22.50
2015,10,16,15,56,22.40
2015,10,16,15,57,22.40
2015,10,16,15,58,22.40
2015,10,16,15,59,22.40
2015,10,16,16,00,22.40
2015,10,16,16,01,22.40
2015,10,16,16,02,22.40
2015,10,16,16,03,22.40
2015,10,16,16,04,22.30
2015,10,16,16,05,22.30
2015,10,16,16,06,22.20
2015,10,16,16,07,22.10
2015,10,16,16,08,22.00
2015,10,16,16,09,21.90
2015,10,16,16,10,21.90
2015,10,16,16,11,21.90
2015,10,16,16,12,21.90
2015,10,16,16,13,22.00
2015,10,16,16,14,22.00
2015,10,16,16,15,22.00
2015,10,16,16,16,22.10
2015,10,16,16,17,22.20
2015,10,16,16,18,22.20
2015,10,16,16,19,22.20
2015,10,16,16,20,22.10
2015,10,16,16,21,22.00
2015,10,16,16,22,21.90
2015,10,16,16,23,21.80
2015,10,16,16,24,21.60
2015,10,16,16,25,21.40
2015,10,16,16,26,21.20
2015,10,16,16,27,21.00
2015,10,16,16,28,20.80
2015,10,16,16,29,20.70
2015,10,16,16,30,20.60
2015,10,16,16,31,20.60
2015,10,16,16,32,20.60
2015,10,16,16,33,20.60
2015,10,16,16,34,20.60
2015,10,16,16,35,20.60
2015,10,16,16,36,20.70
2015,10,16,16,37,20.70
2015,10,16,16,38,20.70
2015,10,16,16,39,20.80
2015,10,16,16,40,20.90
2015,10,16,16,41,20.90
2015,10,16,16,42,21.00
2015,10,16,16,43,21.10
2015,10,16,16,44,21.20
2015,10,16,16,45,21.20
2015,10,16,16,46,21.30
2015,10,16,16,47,21.30
2015,10,16,16,48,21.20
2015,10,16,16,49,21.20
2015,10,16,16,50,21.10
2015,10,16,16,51,21.00
2015,10,16,16,52,21.00
2015,10,16,16,53,20.90
2015,10,16,16,54,20.90
2015,10,16,16,55,20.80
2015,10,16,16,56,20.80
2015,10,16,16,57,20.80
2015,10,16,16,58,20.80
2015,10,16,16,59,20.80
2015,10,16,17,00,20.80
2015,10,16,17,01,20.80
2015,10,16,17,02,20.80
2015,10,16,17,03,20.80
2015,10,16,17,04,20.70
2015,10,16,17,05,20.60
2015,10,16,17,06,20.60
2015,10,16,17,07,20.60
2015,10,16,17,08,20.50
2015,10,16,17,09,20.50
2015,10,16,17,10,20.50
2015,10,16,17,11,20.50
2015,10,16,17,12,20.50
2015,10,16,17,13,20.50
2015,10,16,17,14,20.40
2015,10,16,17,15,20.40
2015,10,16,17,16,20.40
2015,10,16,17,17,20.30
2015,10,16,17,18,20.30
2015,10,16,17,19,20.20
2015,10,16,17,20,20.20
2015,10,16,17,21,20.20
2015,10,16,17,22,20.10
2015,10,16,17,23,20.10
2015,10,16,17,24,20.00
2015,10,16,17,25,20.00
2015,10,16,17,26,19.90
2015,10,16,17,27,19.90
2015,10,16,17,28,19.90
2015,10,16,17,29,19.80
2015,10,16,17,30,19.80
2015,10,16,17,31,19.80
2015,10,16,17,32,19.70
2015,10,16,17,33,19.70
2015,10,16,17,34,19.60
2015,10,16,17,35,19.50
2015,10,16,17,36,19.40
2015,10,16,17,37,19.30
2015,10,16,17,38,19.20
2015,10,16,17,39,19.20
2015,10,16,17,40,19.10
2015,10,16,17,41,19.00
2015,10,16,17,42,19.00
2015,10,16,17,43,18.90
2015,10,16,17,44,18.80
2015,10,16,17,45,18.80
2015,10,16,17,46,18.80